This is the latest recevied weather packets stored in our database for station/object KW4UJ. If no packets are shown the sender has not sent any weather packets the latest 10 day(s).
| Time | Temp. | Humidity | Pressure | Rain* | Wind** | Luminosity | Snow |
|---|---|---|---|---|---|---|---|
| 1788446635 | 27.22° C | 84% | 1017.5 hPa | 0 mm | - | 216 W/m² | - |
| 1788446330 | 27.22° C | 84% | 1017.5 hPa | 0 mm | - | 210 W/m² | - |
| 1788446027 | 26.67° C | 84% | 1017.3 hPa | 0 mm | - | 226 W/m² | - |
| 1788445728 | 26.67° C | 86% | 1017.5 hPa | 0 mm | - | 225 W/m² | - |
| 1788445423 | 26.67° C | 86% | 1017.4 hPa | 0 mm | - | 190 W/m² | - |
| 1788445119 | 26.11° C | 88% | 1017.2 hPa | 0 mm | - | 206 W/m² | - |
| 1788444815 | 25.56° C | 88% | 1017.3 hPa | 0 mm | - | 200 W/m² | - |
| 1788444510 | 25.56° C | 89% | 1017.1 hPa | 0 mm | - | 190 W/m² | - |
| 1788444205 | 25° C | 91% | 1017.1 hPa | 0 mm | - | 211 W/m² | - |
| 1788443901 | 25° C | 92% | 1017 hPa | 0 mm | - | 158 W/m² | - |
| 1788443596 | 24.44° C | 92% | 1016.9 hPa | 0 mm | - | 128 W/m² | - |
| 1788443295 | 24.44° C | 93% | 1016.8 hPa | 0 mm | - | 117 W/m² | - |
| 1788442990 | 24.44° C | 93% | 1016.9 hPa | 0 mm | - | 115 W/m² | - |
| 1788442688 | 24.44° C | 93% | 1017.1 hPa | 0 mm | - | 117 W/m² | - |
| 1788442384 | 23.89° C | 94% | 1017.3 hPa | 0 mm | - | 122 W/m² | - |
| 1788442084 | 23.89° C | 94% | 1017.3 hPa | 0 mm | - | 120 W/m² | - |
| 1788441780 | 23.89° C | 94% | 1017.3 hPa | 0 mm | - | 117 W/m² | - |
| 1788441474 | 23.89° C | 95% | 1017.5 hPa | 0 mm | - | 117 W/m² | - |
| 1788441173 | 23.89° C | 96% | 1017.6 hPa | 0 mm | - | 116 W/m² | - |
| 1788440868 | 23.33° C | 97% | 1018 hPa | 0 mm | - | 107 W/m² | - |
| 1788440563 | 23.33° C | 97% | 1018.1 hPa | 0 mm | - | 81 W/m² | - |
| 1788440261 | 23.33° C | 97% | 1018 hPa | 0 mm | - | 110 W/m² | - |
| 1788439957 | 23.33° C | 98% | 1018.3 hPa | 0 mm | - | 112 W/m² | - |
| 1788439656 | 22.78° C | 98% | 1018.2 hPa | 0 mm | - | 66 W/m² | - |
| 1788439352 | 22.78° C | 98% | 1018.6 hPa | 0 mm | - | 55 W/m² | - |
* Rain latest hour (hover to see other rain measurements)
** Current wind speed in m/s (hover to see current wind gust speed)